Terminal Aerodrome Forecast
Issued by NWS State College, PA

Home | Current Version | Previous Version | Text Only | Print | Product List | Glossary On
Versions: 1 2 3 4 5 6 7 8 9 10 11 12 13 14 15 16 17 18 19 20 21 22 23 24 25 26 27 28 29 30 31 32 33 34 35 36
000
FTUS41 KCTP 180523
TAFIPT
TAF
KIPT 180523Z 1806/1906 06005KT 4SM -SN BR OVC010
      TEMPO 1806/1808 2SM -SN BKN015 OVC025
     FM180800 28008KT P6SM -SHSN OVC035
     FM181100 29010KT P6SM SCT030=

USA.gov is the U.S. government's official web portal to all federal, state and local government web resources and services.